Sangiorgese

Fiera del goal in Sangiorgese-Saline, gli ospiti hanno la meglio [FOTO]

Riceviamo e pubblichiamo Seconda vittoria per il Saline Joniche, che al momento si trova prima in classifica con una gara in piu. Con ben cinque giocatori assenti la squadra di mister Stelitano riesce a tirare...

Real Cittanova-Sangiorgese 1-0, la fotogallery a cura di Marco Tigani

Buona la prima per il Real Cittanova che nel derby contro la Sangiorgese trova la vittoria grazie alla rete di Sposato arrivata all'8' del secondo tempo. Punteggio pieno, quindi, per la squadra del tecnico...

Seconda Categoria, le designazioni arbitrali del sabato

Ecco la designazione arbitrale relativa alla gara di Seconda Categoria in programma sabato: C. Spinella-Real Cittanova: Gabriele Carmelo Fedele di Reggio Calabria Sangiorgese-Saline Joniche: Francesco Giuseppe Varacalli di Locri

Sangiorgese, inizia l’avventura in Seconda Categoria

La Sangiorgese si appresta ad iniziare la nuova stagione 2020-2021, che vedrà i gialloblu confrontarsi nel campionato di Seconda Categoria. La squadra che si basa sullo zoccolo duro dello scorso anno, sarà orfana dell'attaccante...
video

Sangiorgese, una dedica speciale per il salto di categoria [VIDEO]

Dopo la decisione da parte della Lnd di cristallizzare le classifiche, la Sangiorgese grazie ai 24 punti e alla terza posizione in classifica, con giusto merito andrà nella prossima stagione a giocare il campionato...
DataCasaRisultatiTrasfertaOra
2021-04-18 15:00:0018/04/21- 15:00:0015:00
2021-04-11 15:00:0011/04/21- 15:00:0015:00
2021-03-28 15:00:0028/03/21- 15:00:0015:00
2021-03-20 15:00:0020/03/21- 15:00:0015:00
2021-03-14 15:00:0014/03/21- 15:00:0015:00
2021-03-07 15:00:0007/03/21- 15:00:0015:00
2021-02-20 15:00:0020/02/21- 15:00:0015:00
2021-02-14 15:00:0014/02/21- 15:00:0015:00
2021-02-06 15:00:0006/02/21- 15:00:0015:00
2021-01-31 15:00:0031/01/21- 15:00:0015:00
2021-01-23 15:00:0023/01/21- 15:00:0015:00
2021-01-16 15:00:0016/01/21- 15:00:0015:00
2021-01-09 15:00:0009/01/21- 15:00:0015:00
2020-12-19 15:00:0019/12/20- 15:00:0015:00
2020-12-12 15:00:0012/12/20- 15:00:0015:00
2020-12-05 15:00:0005/12/20- 15:00:0015:00
2020-11-28 15:00:0028/11/20- 15:00:0015:00
2020-11-15 15:00:0015/11/20- 15:00:0015:00
2020-11-07 15:00:0007/11/20- 15:00:0015:00
2020-10-30 15:00:0030/10/20- 15:00:0015:00
2020-10-18 15:00:0018/10/201 - 0 15:00:0015:00
2020-04-05 14:30:0005/04/20- 14:30:0014:30
2020-03-29 14:30:0029/03/20- 14:30:0014:30
2020-03-21 14:30:0021/03/20- 14:30:0014:30
2020-03-14 14:30:0014/03/20- 14:30:0014:30
2020-03-08 14:30:0008/03/20- 14:30:0014:30
2020-02-29 14:30:0029/02/201 - 0 14:30:0014:30
2020-02-16 14:30:0016/02/200 - 0 14:30:0014:30
2020-02-08 14:30:0008/02/205 - 0 14:30:0014:30
2020-02-02 14:30:0002/02/201 - 0 14:30:0014:30
2020-01-25 14:30:0025/01/201 - 1 14:30:0014:30
2020-01-19 14:30:0019/01/202 - 0 14:30:0014:30
2020-01-12 14:30:0012/01/202 - 3 14:30:0014:30
2019-12-22 14:30:0022/12/190 - 0 14:30:0014:30
2019-12-14 14:30:0014/12/196 - 1 14:30:0014:30
2019-12-01 14:30:0001/12/193 - 1 14:30:0014:30
2019-11-23 14:30:0023/11/193 - 0 14:30:0014:30
2019-11-16 14:30:0016/11/193 - 5 14:30:0014:30
2019-11-09 14:30:0009/11/192 - 5 14:30:0014:30
2019-05-05 16:00:0005/05/194 - 1 16:00:0016:00
2019-04-27 16:00:0027/04/190 - 3 16:00:0016:00
2019-04-14 16:00:0014/04/193 - 0 16:00:0016:00
2019-04-06 16:00:0006/04/190 - 0 16:00:0016:00
2019-03-30 15:00:0030/03/191 - 0 15:00:0015:00
2019-03-23 15:00:0023/03/190 - 1 15:00:0015:00
2019-03-10 15:00:0010/03/190 - 3 15:00:0015:00
2019-03-02 15:00:0002/03/193 - 0 15:00:0015:00
2019-02-23 14:30:0023/02/194 - 0 14:30:0014:30
2019-02-16 14:30:0016/02/191 - 1 14:30:0014:30
2019-02-09 14:30:0009/02/192 - 1 14:30:0014:30
2019-02-02 14:30:0002/02/194 - 2 14:30:0014:30
2019-01-26 14:30:0026/01/191 - 1 14:30:0014:30
2019-01-20 14:30:0020/01/193 - 1 14:30:0014:30
2019-01-12 14:30:0012/01/192 - 1 14:30:0014:30
2018-12-16 14:30:0016/12/180 - 0 14:30:0014:30
2018-12-01 14:30:0001/12/186 - 2 14:30:0014:30
2018-11-25 14:30:0025/11/180 - 5 14:30:0014:30
2018-11-17 14:30:0017/11/181 - 2 14:30:0014:30
2018-11-11 14:30:0011/11/181 - 3 14:30:0014:30
2018-05-20 16:00:0020/05/181 - 3 16:00:0016:00
2018-05-12 16:00:0012/05/182 - 0 16:00:0016:00
2018-05-06 16:00:0006/05/183 - 0 16:00:0016:00
2018-04-28 16:00:0028/04/180 - 1 16:00:0016:00
2018-04-22 16:00:0022/04/181 - 1 16:00:0016:00
2018-04-14 16:00:0014/04/180 - 7 16:00:0016:00
2018-04-08 16:00:0008/04/183 - 0 16:00:0016:00
2018-03-24 15:00:0024/03/181 - 0 15:00:0015:00
2018-03-18 10:30:0018/03/182 - 0 10:30:0010:30
2018-03-10 15:00:0010/03/180 - 1 15:00:0015:00
2018-03-04 15:00:0004/03/182 - 5 15:00:0015:00
2018-02-24 14:30:0024/02/182 - 3 14:30:0014:30
2018-02-17 17:30:0017/02/186 - 1 17:30:0017:30
2018-02-10 14:30:0010/02/180 - 0 14:30:0014:30
2018-02-04 14:30:0004/02/180 - 0 14:30:0014:30
2018-01-27 14:30:0027/01/181 - 1 14:30:0014:30
2018-01-21 14:30:0021/01/183 - 2 14:30:0014:30
2018-01-13 14:30:0013/01/182 - 2 14:30:0014:30
2018-01-07 14:30:0007/01/180 - 1 14:30:0014:30
2017-12-16 14:30:0016/12/173 - 0 14:30:0014:30
2017-12-10 09:30:0010/12/174 - 1 09:30:009:30
2017-12-02 14:30:0002/12/172 - 2 14:30:0014:30
2017-11-26 14:30:0026/11/171 - 2 14:30:0014:30
2017-11-18 14:30:0018/11/171 - 0 14:30:0014:30
2017-11-11 14:30:0011/11/170 - 1 14:30:0014:30
2017-11-04 14:30:0004/11/171 - 0 14:30:0014:30